Regional Weather Roundup
Issued by NWS

Home | Current Version | Previous Version | Text Only | Print | Product List | Glossary On
Versions: 1 2 3 4 5 6 7 8 9 10 11 12 13 14 15 16 17 18 19 20 21 22 23 24 25 26 27 28 29 30 31 32 33 34 35 36 37 38 39 40 41 42 43 44 45 46 47 48 49 50
000
ASHW40 PHFO 130043
RWRHI

WEATHER ROUNDUP FOR HAWAII
NATIONAL WEATHER SERVICE HONOLULU HI
200 PM HST TUE DEC 12 2017

THIS IS AN AUTOMATED REPORT THAT HAS NOT BEEN QUALITY CONTROLLED.

NOTE..."FAIR" INDICATES FEW OR NO CLOUDS BELOW 12,000 FEET WITH NO
SIGNIFICANT WEATHER AND/OR OBSTRUCTIONS TO VISIBILITY.

* - THESE SITES REPORT LIMITED FIELDS
# - BUOY DATA PROVIDED BY PACIFIC ISLANDS OCEAN OBSERVING SYSTEM.

HIZ001>004-130100-
KAUAI-NIIHAU-

CITY           SKY/WX    TMP DP  RH WIND       PRES   REMARKS
LIHUE APT      MOSUNNY   75  63  66 NW9       29.93F
PORT ALLEN*      N/A     81 N/A N/A NW10G24     N/A
POIPU*           N/A     82 N/A N/A SE2G8       N/A
PRINCEVILLE*   NOT AVBL
KOKOLE POINT*  NOT AVBL
MOLOAA DAIRY*    N/A     72  68  88 W7G14       N/A
WAIMEA HTS*      N/A     84  59  42 NW6G15      N/A
PUU OPAE*        N/A     68  55  64 N12G23      N/A
PUU LUA*       NOT AVBL
MAKAHA RIDGE*    N/A     72  63  73 N3          N/A
$$

HIZ005>011-130100-
OAHU-

CITY           SKY/WX    TMP DP  RH WIND       PRES   REMARKS
HONOLULU       PTSUNNY   74  69  85 W9        29.93F
KALAELOA       PTSUNNY   72  71  97 NW8       29.93F
KANEOHE MCB    LGT RAIN  75  70  84 S5        29.90F
WHEELER FIELD  LGT RAIN  70  70 100 NW14      29.96S
BELLOWS*         N/A    N/A N/A N/A NW7         N/A
KAHUKU*          N/A    N/A N/A N/A NW6G17      N/A
WHEELER*         N/A    N/A N/A N/A NW6G13      N/A
WAIANAE HARBOR   N/A    N/A N/A N/A NW13G20     N/A
DILLINGHAM*    NOT AVBL
KAHUKU TRN*      N/A     72  68  88 SE7G21      N/A
KAWAILOA*        N/A     72  64  78 NW6G16      N/A
KII*             N/A     73  68  83 NW16G26     N/A
MAKUA RANGE*     N/A     72  64  78 SE9G15      N/A
OAHU FOREST NW   N/A     66  63  88 W5G14       N/A
SCHOFIELD BRK*   N/A     70  64  83 MISG        N/A
SCHOFIELD S*   NOT AVBL
WAIANAE VLY*     N/A     77  66  69 NW1G15      N/A
KUAOKALA*        N/A     68  64  88 NW12G26     N/A
HONOULIUULI*   NOT AVBL
MOKUOLOE IS*   NOT AVBL
PALEHUA*         N/A     66  64  94 SE3G14      N/A
WAIAWA PHB*    NOT AVBL
$$

HIZ012>013-130100-
MOLOKAI-

CITY           SKY/WX    TMP DP  RH WIND       PRES   REMARKS
MOLOKAI AIRPT  CLOUDY    77  66  68 SW12      29.94S
KALAUPAPA      NOT AVBL
MAKAPULAPAI*     N/A     77  66  69 SW9G18      N/A
MOLOKAI 1*       N/A     72  70  94 CALM        N/A
PUU ALII*        N/A     61  57  87 S3G12       N/A
$$

HIZ016-130100-
KAHOOLAWE-

CITY           SKY/WX    TMP DP  RH WIND       PRES   REMARKS
KAHOOLAWE*     NOT AVBL
HAKIOAWA*        N/A     76  64  67 MISG      30.34F
HONOKANAIA*    NOT AVBL
KANELOA*         N/A     79  66  65 SW13G22   30.01F
KEALIALALO*    NOT AVBL
LUA MAKIKA*    NOT AVBL
$$

HIZ014>015-130100-
LANAI-

CITY           SKY/WX    TMP DP  RH WIND       PRES   REMARKS
LANAI CITY     CLOUDY    73  66  78 SW13      29.99F
LANAI 1*         N/A     75  66  73 SW12G18     N/A
$$

HIZ017>028-130100-
MAUI-

CITY           SKY/WX    TMP DP  RH WIND       PRES   REMARKS
KAHULUI        MOSUNNY   81  67  62 S18G28    29.91F
KAPALUA-W MAUI MOSUNNY   77  66  69 SW9       29.94
HANA AIRPORT   SUNNY     82  72  69 E2        29.91S
HANA*            N/A     82 N/A N/A E7G15       N/A
HALEAKALA SUMM   N/A     50  12  22 W10         N/A
MAALAEA BAY*     N/A     84 N/A N/A SW15G21     N/A
HALEAKALA*     NOT AVBL
KAUPO GAP*     NOT AVBL
KULA 1*          N/A     63  33  33 W5G14       N/A
$$

HIZ023>026-130100-
BIG ISLAND OF HAWAII COAST AND LOWER SLOPES-

CITY           SKY/WX    TMP DP  RH WIND       PRES   REMARKS
KAILUA KONA    SUNNY     82  63  52 W10       29.92F
HILO           SUNNY     79  67  66 NE6       29.91F
HONOKAA*         N/A     77 N/A N/A VRB1        N/A
KAWAIHAE MWT*    N/A     81 N/A N/A NW6         N/A
KAWAIHAE*        N/A     77 N/A N/A W3        29.93S
SOUTH POINT*     N/A     81 N/A N/A N15G24      N/A
UPOLU AIRPORT* NOT AVBL
KAMUELA*       CLEAR     73  57  56 SW10      30.02F
HAKALAU*         N/A     64  54  70 E5G12       N/A
KALOKO-HONOKO*   N/A     82  64  54 W10       29.91F
PALI 2*          N/A     75  52  43 N6G15       N/A
KEALAKOMO*       N/A     82  66  57 S8          N/A
KAUPULEHU*       N/A     79  61  53 W9G23       N/A
KAPAPALA*        N/A     82  57  42 SE3G13      N/A
LOWER KAHUKU*    N/A    N/A N/A N/A SW3G14      N/A
PUHE CS*         N/A     81  63  54 W3          N/A
PUHO CS*         N/A     83  58  42 W3G10       N/A
PTA KEAMUKU*     N/A     72  55  56 W14G21      N/A
WAIKOLOA*        N/A     79  61  53 W7G18       N/A
$$

HIZ027>028-130100-
BIG ISLAND OF HAWAII INTERIOR AND SUMMMITS-

CITY           SKY/WX    TMP DP  RH WIND       PRES   REMARKS
BRADSHAW FIELD MOSUNNY   71  26  18 W7        30.23F
MK VISITOR CEN   N/A     54  10  17 W13         N/A
MAUNA KEA*       N/A     39 -13  10 SW39        N/A  WCI  26
MAUNA LOA*       N/A     55 -31   2 MISG        N/A
MAUNA LOA 1*   NOT AVBL
PTA KIPUKA*      N/A     75  57  53 S5G15       N/A
PTA RANGE 17*    N/A     66  50  55 SE7G20      N/A
PTA WEST*        N/A     68  55  64 NW12        N/A
NENE CABIN*      N/A     70   0   6 SW10G20     N/A
AHUMOA*          N/A     56  51  85 SW8G14      N/A
PTA PORTABLE*  NOT AVBL
PUU MALI*        N/A     59  50  72 N12         N/A
$$

HIC003-130100-
NORTHWEST ISLANDS-

CITY           SKY/WX    TMP DP  RH WIND       PRES   REMARKS
MIDWAY ISLAND    N/A     72  55  56 VRB6      30.21F
MIDWAY NOS*      N/A     70 N/A N/A MISG      30.18F
FRENCH FRIGATE NOT AVBL
$$

PHZ110>124-180-130100-
BUOY REPORTS

STATION/POSITION TIME  TEMP    WIND        PRES    WAVE   SWELL
                       AIR SEA DIR/SP/G            HT/PER HT/DIR
                 (UTC) (F)     (DEG/KT/KT) (MB)    (FT/S) (FT/D)
BUOY 51001       0030   72 75  330/ 19/ 25 1014.1F
BUOY 51101       2350   72 75  310/ 19/ 25 1014.4F  19/14  18/330
BUOY 51100       NOT AVBL
BUOY 51002       0030   78 79   30/  8/ 10 1012.4F
BUOY 51003       2350   76 79  320/  6/  8 1013.7F   5/11   5/350
BUOY 51004       0030   74 78  250/  8/ 12 1012.9F
WAIMEA BAY#      0002      75                N/A     6/11   3/350
MOKAPU POINT#    0004      77                N/A     4/12   3/360
LANAI#           NOT AVBL
BARBERS PT 2#    NOT AVBL
PAUWELA#         0030      78                N/A     6/12   3/340
HILO#            0027      78                N/A     5/13   3/350
KANEOHE BAY#     NOT AVBL
KANEOHE BAY 2#   NOT AVBL
HANALEI#         0022      77                N/A     7/11   3/340
KAHULUI HARBOR   0018          160/ 14/ 23   N/A
HONOLULU HARBOR  0018          260/  9/ 11   N/A
PEARL HARBOR#    2330      78                N/A     3/ 4
KILO NALU        NOT AVBL
HILO HARBOR      0018           30/  9/ 10   N/A
MOKUOLOE         2336   73 75  310/  3/  5 1013.6F
NAWILIWILI       0018          280/  4/  7   N/A
WHOTS BUOY       NOT AVBL
BUOY 51028       NOT AVBL
$$

......................KEY........................................
  SKY/WX - SKY CONDITIONS/PRESENT WEATHER
  TMP    - TEMPERATURE IN FAHRENHEIT
  DWPT   - DEWPOINT IN FAHRENHEIT
  RH     - RELATIVE HUMIDITY IN PERCENT
  WIND   - DIRECTION AND SPEED /MPH FOR ISLANDS...KTS FOR BUOYS/
  PRES   - MEAN SEA LEVEL PRESSURE IN INCHES OF HG
  VSB    - VISIBILITY IN MILES
  HX     - HEAT INDEX
  WCI    - WIND CHILL INDEX
  VRB    - VARIABLE WIND DIRECTION
  N/A    - NOT AVAILABLE



USA.gov is the U.S. government's official web portal to all federal, state and local government web resources and services.